Regional Weather Roundup
Issued by NWS Charleston, SC

Current Version | Previous Version | Graphics & Text | Print | Product List | Glossary On
Versions: 1 2 3 4 5 6 7 8 9 10 11 12 13 14 15 16 17 18 19 20 21 22 23 24 25 26 27 28 29 30 31 32 33 34 35 36 37 38 39 40 41 42 43 44 45 46 47 48 49 50
000
ASUS42 KCHS 231710
RWRCHS
REGIONAL WEATHER ROUNDUP
NATIONAL WEATHER SERVICE CHARLESTON SC
100 PM EDT WED JUL 23 2014

NOTE: "FAIR" INDICATES FEW OR NO CLOUDS BELOW 12,000 FEET WITH NO
SIGNIFICANT WEATHER AND/OR OBSTRUCTIONS TO VISIBILITY.

NOT ALL STATIONS ARE QUALITY CONTROLLED BY THE NATIONAL
WEATHER SERVICE. USE DATA WITH CAUTION...ESPECIALLY
DEWPOINT OBSERVATIONS.

SCZ027-030-031-034>040-042>050-231800-
...SOUTH CAROLINA...

CITY           SKY/WX    TMP DP  RH WIND       PRES   REMARKS
N CHARLESTON   PTSUNNY   90  72  55 CALM      30.06F HX  97
WATERFRONT PRK NOT AVBL
FORT JOHNSON   NOT AVBL
MOUNT PLEASANT FAIR      88  73  62 CALM      30.06F HX  96
JOHNS ISLAND   MOSUNNY   90  61  37 CALM      30.07S HAZE
PINOPOLIS        N/A     88  73  62 MISG      29.99F HX  96
MONCKS CORNER    N/A     86  77  74 CALM      30.06F HX  97
SUMMERVILLE    PTSUNNY   88  75  66 NW3       30.07F HX  97
BEAUFORT MCAS  PTSUNNY   91  71  51 NW6       30.06F HX  97
BEAUFORT ARPT  PTSUNNY   90  73  58 CALM      30.06F HX  98
HILTON HEAD IS MOSUNNY   84  77  79 SE5       30.08F HX  94
GEORGETOWN     NOT AVBL
WALTERBORO     MOSUNNY   88  70  55 NW7       30.07F HX  92
ORANGEBURG     PTSUNNY   87  71  58 S5        30.07F HX  93
BARNWELL       PTSUNNY   88  72  58 SW7       30.07F HX  94
AIKEN          PTSUNNY   88  73  62 NW5       30.10F HX  96
MANNING        PTSUNNY   86  75  70 MISG      30.06F HX  95
KINGSTREE      NOT AVBL
COLUMBIA       PTSUNNY   87  72  60 VRB3      30.06F HX  93
SUMTER         MOSUNNY   85  75  70 VRB3      30.05S HX  94
FLORENCE       PTSUNNY   87  73  62 SW6       30.05F HX  94
MYRTLE BEACH   MOSUNNY   90  73  58 SE8       30.06S HX  98
N MYRTLE BEACH PTSUNNY   84  74  71 S9        30.05S HX  91

$$

GAZ063-065-086>088-099>101-113>116-118-119-134-136>141-150-231800-
...GEORGIA...

CITY           SKY/WX    TMP DP  RH WIND       PRES   REMARKS
SAVANNAH ARPT  PTSUNNY   92  70  48 CALM      30.06F HX  97
HUNTER AAF     MOSUNNY   89  74  60 N1        30.05F HX  98
FORT STEWART   MOSUNNY   89  72  56 E5        30.05F HX  96
STATESBORO     NOT AVBL
SYLVANIA       SUNNY     89  76  67 SW3       30.08F HX 100
CLAXTON        FAIR      88  75  66 CALM      30.07S HX  97
THOMSON        PTSUNNY   87  77  72 CALM      30.13S HX  98
AUGUSTA-BUSH   CLOUDY    87  71  58 CALM      30.06F HX  93
AUGUSTA-DANIEL MOSUNNY   88  70  55 VRB5      30.08F HX  93
SWAINSBORO     FAIR      90  75  62 N3        30.08F HX 100
VIDALIA          N/A     88  72  58 CALM      30.08S HX  94
ALMA           MOSUNNY   90  71  53 SW6       30.07F HX  96
WAYCROSS       MOSUNNY   93  75  56 N7        30.07S HX 105
JESUP          NOT AVBL
BRUNSWICK      MOSUNNY   91  70  49 CALM      30.07F HX  97
SAINT SIMONS   SUNNY     87  75  67 VRB7      30.06F HX  96

$$

SCZ027-028-034-036>038-045-046-048>050-GAZ119-141-231800-
...LAKE AND SUPPLEMENTAL COASTAL OBSERVATIONS...

STATION/POSITION TIME  TEMP    WIND        PRES    WAVE   SWELL
                       AIR SEA DIR/SP/G            HT/PER HT/PER/DIR
                 (UTC) (F)     (DEG/KT/KT) (MB)    (FT/S) (FT/S/D)
UPR LAKE MARION  NOT AVBL
WINYAH BAY       NOT AVBL
LAKE MURRAY      1600   83     220/  4/  5 1017.6F
ACE BASIN NERRS  NOT AVBL
FORT PULASKI     1700   84     110/  5/  8 1018.3F
SAPELO ISLAND    1600   88     230/  1     1019.0S

$$

ANZ835-935-AMZ111-154-330-350-352-354-374-450-454-472-231800-
...C-MAN AND BUOY OBSERVATIONS...

STATION/POSITION TIME  TEMP    WIND        PRES    WAVE   SWELL
                       AIR SEA DIR/SP/G            HT/PER HT/PER/DIR
                 (UTC) (F)     (DEG/KT/KT) (MB)    (FT/S) (FT/S/D)
FOLLY BEACH CMAN 1600   83     150/  4/  5 1018.9F
BUOY 41004       1700   79 82   60/  4/  4 1018.0F   3/ 7   3/ 7
BUOY 41008       1700   83 87   CALM  /  4 1018.5F   2/ 6
5E ST. MARYS GA  1700      88                N/A     2/ 7
FRYING PAN BUOY  NOT AVBL
BUOY 41025       1700          VRB  8/ 10  1017.4    3/ 9   2/130/ 9
CAPE LOOKOUT NC  1600   81     230/  8/  9 1017.7F
BUOY 41002       1631   82 82  220/ 17/ 21 1020.5F   4/ 5   2/140/ 8
BUOY 41010       1700   83 83  180/ 10/ 14 1019.8F   4/ 6   3/130/ 6
BUOY 41012       NOT AVBL
ST AUGUSTINE FL  1700   82      80/  8/  8 1019.3F
CAPERS NEARSHORE 1600   86     180/  2/  4   N/A
FRIPP NEARSHORE  NOT AVBL


$$



USA.gov is the U.S. government's official web portal to all federal, state and local government web resources and services.